STARLINK-2743, 48682

Orbit data source: Space-Track

STARLINK-2743, 48682 is a payload satellite owned by SpaceX/Seattle (US) in LEO that was launched on Wed, 26 May 2021 UTC via an FALCON 9 launch vehicle from the Air Force Eastern Test Range (AFETR). Payload-class satellites include a variety of spacecraft equipped with specific instruments for various scientific and technological missions. These include communications satellites like Starlink; space stations such as the ISS; scientific satellites like the Hubble; Earth observation satellites from companies like Planet Labs, Umbra, and HawkEye 360; GPS; miniature CubeSats for education and research; and military/defense satellites.

Loading next visibility...
Identifier
48682, 2021-044AW
Orbit
LEO
Country
Flag of USUS
Related business
Manufacturer
SpaceX/Seattle
Mission
Operational Commercial Communications
Bus & Motor
STARLINK, Unknown motor
Mass
260 kg wet, ~248 kg dry
Launch date (UTC)
2021-05-26 (5 years ago)
Launch vehicle
FALCON 9
Launch site
Air Force Eastern Test Range (AFETR)
Object type
Payload
Rocket body
Debris
Shape & HBR
Box + 1 Pan, 10.1 m
Radar Cross Section
13.562 m², Large (>1 m²)

Expand to show TLE details & history
Last TLE update: 1 day ago

TLE from 1 day ago
0 STARLINK-2743
1 48682U 21044AW  25348.59802994  .00023161  00000-0  15671-2 0  9992
2 48682  53.0558  93.7737 0001221 100.3685 259.7442 15.06436084251571
Epoch: 2025-12-14T14:21Z
TLE epoch observation values (Epoch: 2025-12-14T14:21:09.786Z)
Latitude
-0.00001°
Longitude
154.97426°
Altitude
548.131 km
Speed
7.589 km/s
True Right ascension
06h 15m 05s
True Declination
0° 00' 00"
Sunlit
Object was in full shadow at epoch
Visualization orbit readout
Latitude
Unknown
Longitude
Unknown
Altitude
Unknown
Speed
Unknown
Apparent Right ascension
Unknown
Apparent Declination
Unknown
Sunlit
N/A
Visualization observer readout
Local Sidereal Time
15:08:16
Azimuth
Unknown
Elevation
Unknown
Doppler factor
Unknown
Orbital elements
Apogee altitude
548.217 km
Perigee altitude
546.526 km
Semi-major axis
6,925.508 km
Eccentricity
0.00012
Inclination
53.0558°
RAAN
93.7737°
Arg. of periapsis
100.3685°
True anomaly
259.73043°
Mean anomaly
259.7442°
Eccentric anomaly
259.73732°
Mean motion
3.76587 °/min
Orbital period
95.6 mins
BSTAR
0.0015671
Loading maneuver chart data...
Computing Atmospheric mass density...
Loading historical data...
Loading historical data...
Loading historical data...
Loading historical data...
Loading historical data...
Loading historical data...
Loading historical data...

Documentation

Showing up to 5 results
|